This demonstration page uses our WeatherBlox Daily Observations layout. Learn more.

Left ArrowRight Arrow

Hourly Observations for February 7, 2022

Temp ( °F °C ) Dew Point ( °F °C ) Humidity (%) Winds ( mph kmh ) Pressure ( in mb ) Visibility ( mi km ) Precip ( " mm )
12:15 am 00:15 Mostly Cloudy 33 0.5 18 -8 53 53 SW 8 13 30.36 1028 10 16 0.00 0.00
12:35 am 00:35 Partly Cloudy 33 0.5 17 -8.1 53 53 SW 8 13 30.36 1028 10 16 0.00 0.00
12:55 am 00:55 Partly Cloudy 34 1.3 18 -7.7 52 52 WSW 8 13 30.35 1028 10 16 0.00 0.00
1:15 am 01:15 Partly Cloudy 35 1.6 18 -7.6 51 51 SW 7 11 30.35 1028 10 16 0.00 0.00
1:35 am 01:35 Partly Cloudy 35 1.7 19 -7.2 52 52 WSW 10 17 30.35 1028 10 16 0.00 0.00
1:55 am 01:55 Partly Cloudy 36 2 20 -6.5 54 54 WSW 10 17 30.35 1028 10 16 0.00 0.00
2:15 am 02:15 Clear 36 2.1 22 -5.8 56 56 WSW 12 19 30.35 1028 10 16 0.00 0.00
2:35 am 02:35 Clear 34 1.1 21 -6 60 60 W 12 19 30.35 1028 10 16 0.00 0.00
2:55 am 02:55 Clear 32 0 21 -6.1 64 64 W 9 15 30.36 1028 10 16 0.00 0.00
3:15 am 03:15 Clear 31 -0.5 21 -6.2 66 66 W 10 17 30.35 1028 10 16 0.00 0.00
3:35 am 03:35 Clear 31 -0.5 21 -6 67 67 W 10 17 30.35 1028 10 16 0.00 0.00
3:55 am 03:55 Clear 30 -1 21 -6.1 69 69 W 10 17 30.35 1028 10 16 0.00 0.00
4:15 am 04:15 Clear 29 -1.6 21 -6.3 71 71 W 9 15 30.35 1028 10 16 0.00 0.00
4:35 am 04:35 Clear 29 -1.9 21 -6.1 73 73 W 10 17 30.34 1028 10 16 0.00 0.00
4:55 am 04:55 Clear 29 -1.6 21 -6 72 72 W 10 17 30.34 1027 10 16 0.00 0.00
5:15 am 05:15 Clear 28 -2 21 -6.2 73 73 W 12 19 30.35 1028 10 16 0.00 0.00
5:35 am 05:35 Clear 28 -2.3 20 -6.5 73 73 W 9 15 30.35 1028 10 16 0.00 0.00
5:55 am 05:55 Clear 27 -2.7 20 -6.8 74 74 W 10 17 30.35 1028 10 16 0.00 0.00
6:15 am 06:15 Clear 27 -3 20 -6.9 75 75 W 9 15 30.35 1028 10 16 0.00 0.00
6:35 am 06:35 Clear 27 -3 19 -7 74 74 W 9 15 30.35 1028 10 16 0.00 0.00
6:55 am 06:55 Clear 26 -3.6 19 -7.4 75 75 W 8 13 30.36 1028 10 16 0.00 0.00
7:15 am 07:15 Clear 26 -3.5 19 -7.2 76 76 W 8 13 30.36 1028 10 16 0.00 0.00
7:35 am 07:35 Clear 26 -3.3 19 -7.2 75 75 W 9 15 30.36 1028 10 16 0.00 0.00
7:55 am 07:55 Sunny 26 -3.5 19 -7.2 76 76 W 9 15 30.36 1028 10 16 0.00 0.00
8:15 am 08:15 Mostly Cloudy 27 -2.6 20 -6.9 73 73 W 10 17 30.36 1028 10 16 0.00 0.00
8:35 am 08:35 Cloudy 29 -1.7 20 -6.5 70 70 W 9 15 30.34 1027 10 16 0.00 0.00
8:55 am 08:55 Cloudy 31 -0.4 21 -6.1 66 66 W 8 13 30.34 1027 10 16 0.00 0.00
9:15 am 09:15 Cloudy 34 1.2 22 -5.6 61 61 WNW 7 11 30.32 1027 10 16 0.00 0.00
9:35 am 09:35 Partly Cloudy 36 2 22 -5.7 57 57 WNW 12 19 30.31 1026 10 16 0.00 0.00
9:55 am 09:55 Sunny 39 3.8 22 -5.8 50 50 WNW 10 17 30.29 1026 10 16 0.00 0.00
10:15 am 10:15 Sunny 42 5.5 21 -6 44 44 WNW 14 22 30.27 1025 10 16 0.00 0.00
10:35 am 10:35 Sunny 44 6.8 20 -6.4 39 39 WNW 9 15 30.26 1025 10 16 0.00 0.00
10:55 am 10:55 Sunny 46 7.8 21 -6.2 37 37 WNW 12 19 30.24 1024 10 16 0.00 0.00
11:15 am 11:15 Sunny 47 8.4 21 -6 36 36 NW 13 20 30.24 1024 10 16 0.00 0.00
11:35 am 11:35 Sunny 48 9 22 -5.6 35 35 WNW 8 13 30.23 1024 10 16 0.00 0.00
11:55 am 11:55 Sunny 50 10.2 22 -5.5 33 33 NW 8 13 30.21 1023 10 16 0.00 0.00
12:15 pm 12:15 Sunny 52 11.1 22 -5.4 31 31 NW 8 13 30.19 1022 10 16 0.00 0.00
12:35 pm 12:35 Sunny 54 12.1 22 -5.4 29 29 WNW 10 17 30.18 1022 10 16 0.00 0.00
12:55 pm 12:55 Sunny 55 12.8 22 -5.6 28 28 NW 8 13 30.16 1021 10 16 0.00 0.00
1:15 pm 13:15 Sunny 56 13.2 22 -5.4 27 27 W 10 17 30.14 1021 10 16 0.00 0.00
1:35 pm 13:35 Sunny 56 13.6 22 -5.5 26 26 W 9 15 30.13 1020 10 16 0.00 0.00
1:55 pm 13:55 Sunny 57 14.1 22 -5.5 25 25 NW 15 24 30.12 1020 10 16 0.00 0.00
2:15 pm 14:15 Sunny 57 14.1 22 -5.6 25 25 NW 13 20 30.11 1020 10 16 0.00 0.00
2:35 pm 14:35 Sunny 58 14.2 22 -5.7 25 25 WNW 12 19 30.10 1019 10 16 0.00 0.00
2:55 pm 14:55 Sunny 58 14.6 22 -5.7 24 24 WNW 7 11 30.09 1019 10 16 0.00 0.00
3:15 pm 15:15 Sunny 58 14.7 22 -5.8 24 24 NW 13 20 30.09 1019 10 16 0.00 0.00
3:35 pm 15:35 Sunny 59 14.9 21 -6 23 23 WNW 12 19 30.08 1019 10 16 0.00 0.00
3:55 pm 15:55 Sunny 59 14.8 21 -6.1 23 23 WNW 12 19 30.08 1019 10 16 0.00 0.00
4:15 pm 16:15 Sunny 58 14.6 21 -6 24 24 NW 10 17 30.07 1018 10 16 0.00 0.00
4:35 pm 16:35 Sunny 58 14.6 20 -6.4 23 23 WNW 8 13 30.07 1018 10 16 0.00 0.00
4:55 pm 16:55 Sunny 58 14.4 20 -6.6 23 23 WNW 7 11 30.06 1018 10 16 0.00 0.00
5:15 pm 17:15 Sunny 57 13.8 20 -6.8 24 24 W 6 9 30.07 1018 10 16 0.00 0.00
5:35 pm 17:35 Sunny 55 12.7 19 -7.1 25 25 W 6 9 30.07 1018 10 16 0.00 0.00
5:55 pm 17:55 Sunny 52 11.2 19 -7.4 27 27 WSW 5 7 30.08 1019 10 16 0.00 0.00
6:15 pm 18:15 Clear 50 10.2 19 -7.5 28 28 SW 3 6 30.09 1019 10 16 0.00 0.00
6:35 pm 18:35 Clear 47 8.6 17 -8.1 30 30 SW 7 11 30.10 1019 10 16 0.00 0.00
6:55 pm 18:55 Clear 46 7.7 17 -8.4 31 31 SSW 7 11 30.10 1019 10 16 0.00 0.00
7:15 pm 19:15 Clear 44 6.5 17 -8.4 34 34 SW 7 11 30.10 1019 10 16 0.00 0.00
7:35 pm 19:35 Clear 44 6.4 17 -8.5 34 34 SW 6 9 30.11 1019 10 16 0.00 0.00
7:55 pm 19:55 Clear 43 6.3 18 -8 35 35 SW 7 11 30.11 1020 10 16 0.00 0.00
8:15 pm 20:15 Clear 42 5.4 18 -7.8 38 38 SW 5 7 30.11 1020 10 16 0.00 0.00
8:35 pm 20:35 Clear 41 5.2 18 -7.7 39 39 SW 7 11 30.11 1020 10 16 0.00 0.00
8:55 pm 20:55 Clear 40 4.6 18 -7.8 41 41 SW 7 11 30.11 1020 10 16 0.00 0.00
9:15 pm 21:15 Clear 39 3.7 18 -7.7 43 43 SW 7 11 30.12 1020 10 16 0.00 0.00
9:35 pm 21:35 Clear 38 3.6 18 -8 43 43 SW 7 11 30.11 1020 10 16 0.00 0.00
9:55 pm 21:55 Clear 37 3 18 -8 45 45 SW 7 11 30.11 1020 10 16 0.00 0.00
10:15 pm 22:15 Clear 38 3.6 18 -7.6 44 44 SW 7 11 30.10 1019 10 16 0.00 0.00
10:35 pm 22:35 Clear 40 4.6 18 -7.6 41 41 SW 7 11 30.09 1019 10 16 0.00 0.00
10:55 pm 22:55 Clear 38 3.2 17 -8.1 44 44 SW 6 9 30.10 1019 10 16 0.00 0.00
11:15 pm 23:15 Clear 38 3.4 18 -7.6 45 45 WSW 8 13 30.08 1019 10 16 0.00 0.00
11:35 pm 23:35 Clear 39 4 18 -7.6 43 43 WSW 10 17 30.08 1019 10 16 0.00 0.00
11:55 pm 23:55 Clear 41 4.8 19 -7 42 42 WSW 13 20 30.06 1018 10 16 0.00 0.00

Powered by AerisWeather